Current weather by "City, St" or "zip code"  
 

Current Conditions: Fletcher Field, Clarksdale, MS

NULL


43.0 F

Last Updated on Oct 31 2020, 1:55 am CDT
Humidity: 100%
Wind Speed: N 0.0 mph
Barometer 30.28 in
Dewpoint: 42.8 F
Visibility: 10.00 mi
Precip: --
Heat Index: NA
Wind Chill: NA
Current conditions at:

Fletcher Field, Clarksdale, MS (KCKM)

Lat: 34.2997 Lon: 90.5123

Local Radar Image active severe weather and emergency alerts image image weather storm and storm spotter reports image weather observation monitoring service image
Local
Radar
Active
Alerts
Storm Reports Obs
Monitoring

Sign-up For Email & Text Message Weather Alert Notification Services



Advertise Here

Observation History for Fletcher Field, Clarksdale, MS


Time Wind
(mph)
Vis
(mi)
Weather Precip (in) Temperature (F) Relative
Humidity
Wind
Chill
(F)
Heat
Index
(F)
Pressure
Air Dwpt altimeter
(in)
sea level
(mb)
Rmks
1:55 am CDT N 0.0 10.00 NULL -- 43.0 42.8 100% NA NA 30.28 M
12:55 am CDT NE 4.6 4.00 Fog/Mist -- 43.0 42.8 100% 40 NA 30.28 M
11:55 pm CDT 10.00 NULL -- 45.0 44.6 100% NA NA 30.29 M
10:55 pm CDT N 0.0 10.00 NULL -- 46.0 46.4 100% NA NA 30.29 M
9:55 pm CDT N 0.0 7.00 NULL -- 46.0 46.4 100% NA NA 30.29 M
8:55 pm CDT N 4.6 10.00 NULL -- 46.0 46.4 100% 44 NA 30.28 M
7:55 pm CDT N 5.8 10.00 NULL -- 50.0 46.4 88% 48 NA 30.27 M
6:55 pm CDT N 5.8 10.00 NULL -- 50.0 46.4 88% 48 NA 30.26 M
5:55 pm CDT N 5.8 10.00 NULL -- 55.0 42.8 63% 54 NA 30.26 M
4:55 pm CDT N 8.1 G 13.8 10.00 NULL -- 57.0 42.8 59% 55 NA 30.26 M
3:55 pm CDT N 9.2 10.00 NULL -- 59.0 41.0 51% 57 NA 30.26 M
2:55 pm CDT N 11.5 10.00 NULL -- 57.0 42.8 59% 54 NA 30.27 M
1:55 pm CDT N 11.5 10.00 NULL -- 55.0 42.8 63% 52 NA 30.29 M
12:55 pm CDT N 9.2 G 15.0 10.00 NULL -- 55.0 42.8 63% 52 NA 30.32 M
11:55 am CDT N 10.4 10.00 NULL -- 52.0 44.6 77% 48 NA 30.33 M
10:55 am CDT N 11.5 10.00 NULL -- 50.0 42.8 76% 46 NA 30.34 M
9:55 am CDT N 10.4 G 16.1 10.00 NULL -- 46.0 41.0 82% 41 NA 30.34 M
8:55 am CDT N 16.1 10.00 NULL -- 45.0 41.0 87% 38 NA 30.33 M
7:55 am CDT N 6.9 10.00 NULL -- 43.0 42.8 100% 39 NA 30.30 M
6:55 am CDT N 5.8 10.00 NULL -- 45.0 42.8 93% 42 NA 30.28 M
5:55 am CDT NW 9.2 10.00 NULL -- 46.0 42.8 87% 41 NA 30.26 M
4:55 am CDT NW 6.9 10.00 NULL -- 46.0 44.6 93% 42 NA 30.24 M
3:55 am CDT NW 9.2 10.00 NULL -- 46.0 44.6 93% 41 NA 30.21 M
2:55 am CDT NW 6.9 10.00 NULL -- 46.0 44.6 93% 42 NA 30.20 M

Regional Weather Observation


Tunica, Tunica Municipal Airport, MS (KUTA)

Fair
41.0 F

Stuttgart, Stuttgart Municipal Airport, AR (KSGT)

Fair
43.0 F

West Memphis, West Memphis Municipal Airport, AR (KAWM)

Fair
42.0 F

Pine Bluff, Grider Field Airport, AR (KPBF)

Fair
41.0 F

Olive Branch, Olive Branch Airport, MS (KOLV)

Fog/Mist
41.0 F

Oxford, University-Oxford Airport, MS (KUOX)

Fair
39.0 F